Location: Flotzheim
(48.8375°N, 10.8136°E)
Time: 17:27:25
(UTC+00:00)

Cosmos 1898 Rocket - Pass Details

Date: 23 January 2021
Orbit: 754 x 783 km, 74.0° (Epoch: 01 March)

Event Time Altitude Azimuth Distance (km) Brightness Sun altitude
Rises 18:08:35 0° 198° (SSW) 3,238 7.1 -20.8°
Reaches altitude 10° 18:10:58 10° 197° (SSW) 2,311 6.2 -21.2°
Maximum altitude 18:16:13 82° 111° (ESE) 782 3.4 -22.1°
Enters shadow 18:18:33 34° 28° (NNE) 1,248 4.3 -22.5°
